Voltar ao catálogo

FENGYUN 1C DEB

AtivoPO
NORAD 31887·DEBRIS·🇨🇳 China

Lançado May 10, 1999 de Taiyuan Satellite Launch Center

Loading…

Próximas Passagens (próximas 24 horas)

TLE

AtualizadoSource: Space-Track

Época: Sep 13, 2026, 05:32 UTC

1 31887U 99025CKN 26256.23121995  .00005085  00000-0  10433-2 0  9996
2 31887  99.5231 353.1589 0020214 256.5279 103.3665 14.61098387  6071

Acompanhe FENGYUN 1C DEB em tempo real com AllMySat

Download on the App Store